Tracking 23752 objects as of 24-Oct-2021
HD Live streaming from Space Station
objects crossing your sky now

DIAMANT B-P4 R/B

Track DIAMANT B-P4 R/B now!
10-day predictions


NORAD ID: 7647
Int'l Code: 1975-010B
Perigee: 804.1 km
Apogee: 1,124.8 km
Inclination: 49.8 °
Period: 104.2 minutes
Semi major axis: 7335 km
RCS: 0.969 m2 (medium)
Launch date: February 6, 1975
Source: France (FR)
Launch site: FRENCH GUIANA (FRGUI)

Note: This is a ROCKET BODY
aabbcc
Your satellite tracking list
Your tracking list is empty




NASA's NSSDC Master Catalog

Two Line Element Set (TLE):
1  7647U 75010B   21297.46239219 -.00000082  00000-0  49281-4 0  9993
2  7647  49.8234 162.5828 0218641  44.1956 317.6175 13.81853429356692
Source of the keplerian elements: AFSPC